Location: Marengo
(51.4813°N, 109.7825°W)
Time: 20:07:34
(UTC+00:00)

X-37B - Pass Details

Date: 29 January 2022
Orbit: 329 x 342 km, 45.0° (Epoch: 18 May)

Event Time Altitude Azimuth Distance (km) Brightness Sun altitude
Rises 01:32:03 0° 211° (SSW) 2,110 5.0 -14.0°
Maximum altitude 01:36:02 11° 156° (SSE) 1,239 3.0 -14.6°
Enters shadow 01:36:23 10° 149° (SSE) 1,248 2.9 -14.6°
